Volver al catálogo

TYVAK-0173

ActivoCienciaPO
NORAD 48892·PAYLOAD·🇦🇺 Australia

Lanzado Jun 30, 2021 desde Cape Canaveral Space Force Station

Loading…

Próximos Pases (próximas 24 horas)

TLE

ActualizadoSource: Space-Track

Época: Sep 14, 2026, 02:53 UTC

1 48892U 21059P   26257.12015216  .00001176  00000-0  15175-3 0  9995
2 48892  95.9995 311.3438 0011005  88.5089 271.7390 14.82115030281417

Sigue TYVAK-0173 en tiempo real con AllMySat

Download on the App Store